Hourly Weather Roundup
Issued by NWS Central Illinois

Home | Current Version | Previous Version | Text Only | Print | Product List | Glossary On
Versions: 1 2 3 4 5 6 7 8 9 10 11 12 13 14 15 16 17 18 19 20 21 22 23 24 25 26 27 28 29 30 31 32 33 34 35 36 37 38 39 40 41 42 43 44 45 46 47 48 49 50
000
NZUS43 KILX 200010
HWRILX

AREA WEATHER ROUNDUP
NATIONAL WEATHER SERVICE, LINCOLN IL
600 PM CST THU JAN 19 2017


CITY           SKY/WX    TMP DP  RH WIND       PRES   REMARKS
BLOOMINGTON    LGT RAIN  39  39 100 E16       29.76F FOG     WCI  30
6HR MIN TEMP:  39; 6HR MAX TEMP:  41; 6HR PCP:  0.26;

CHAMPAIGN      CLOUDY    43  39  86 E17       29.76S
6HR MIN TEMP:  42; 6HR MAX TEMP:  43; 6HR PCP:  0.24;

DANVILLE       DRIZZLE   42  40  95 E10       29.77F
6HR MIN TEMP:  41; 6HR MAX TEMP:  43; 6HR PCP:  0.19;

DECATUR        CLOUDY    42  42 100 E14       29.74F WCI  35
6HR MIN TEMP:  42; 6HR MAX TEMP:  44; 6HR PCP:  0.30;

EFFINGHAM      CLOUDY    45  45 100 E10       29.74F FOG
6HR MIN TEMP:  43; 6HR MAX TEMP:  45; 6HR PCP:  0.12;

FLORA          RAIN      47  46  97 E6        29.73F
6HR MIN TEMP:  45; 6HR MAX TEMP:  47; 6HR PCP:  0.09;

GALESBURG      RAIN      39  39 100 E9        29.75R WCI  33
6HR MIN TEMP:  39; 6HR MAX TEMP:  41; 6HR PCP:  0.15;

JACKSONVILLE   CLOUDY    43  42  99 E6        29.73R FOG
6HR MIN TEMP:  43; 6HR MAX TEMP:  45; 6HR PCP:  0.03;

LACON          DRIZZLE   38  38 100 E8        29.77F WCI  32
6HR MIN TEMP:  38; 6HR MAX TEMP:  40; 6HR PCP:  0.08;

LAWRENCEVILLE  HVY RAIN  47  47 100 E9        29.76F FOG
6HR MIN TEMP:  45; 6HR MAX TEMP:  47; 6HR PCP:  0.17;

LITCHFIELD     FOG       44  44 100 SE8       29.71S VSB 1
6HR MIN TEMP:  43; 6HR MAX TEMP:  44; 6HR PCP:  0.13;

$$


CITY           SKY/WX    TMP DP  RH WIND       PRES   REMARKS
LINCOLN        RAIN      43  42  99 E9        29.74S
6HR MIN TEMP:  43; 6HR MAX TEMP:  44;

MACOMB         CLOUDY    41  41 100 E8        29.76R FOG
6HR MIN TEMP:  39; 6HR MAX TEMP:  42; 6HR PCP:  0.08;

MATTOON        CLOUDY    43  42  97 SE12G20   29.73F
6HR MIN TEMP:  42; 6HR MAX TEMP:  44; 6HR PCP:  0.16;

MT CARMEL AP   HVY RAIN  47  46  95 E14       29.75F
6HR MIN TEMP:  45; 6HR MAX TEMP:  47; 6HR PCP:  0.17;

OLNEY-NOBLE AP LGT RAIN  45  45 100 E7        29.74F
PARIS          DRIZZLE   43  42  98 E9        29.78F
6HR MIN TEMP:  42; 6HR MAX TEMP:  43; 6HR PCP:  0.07;

PEORIA         LGT RAIN  41  40  96 E10       29.75F WCI  35
6HR MIN TEMP:  41; 6HR MAX TEMP:  43; 6HR PCP:  0.01;

PONTIAC        DRIZZLE   40  40 100 E9        29.82R WCI  34
6HR MIN TEMP:  39; 6HR MAX TEMP:  41; 6HR PCP:  0.26;

RANTOUL        CLOUDY    43  42  96 E14       29.77S FOG
6HR MIN TEMP:  42; 6HR MAX TEMP:  44; 6HR PCP:  0.11;

SPRINGFIELD    CLOUDY    45  43  93 E7        29.74S FOG
6HR MIN TEMP:  43; 6HR MAX TEMP:  45; 6HR PCP:  0.08;

TAYLORVILLE    CLOUDY    43  42  99 E8        29.73R FOG
$$

...REGIONAL REPORTS...


CITY           SKY/WX    TMP DP  RH WIND       PRES   REMARKS
CHICAGO O`HARE LGT RAIN  39  36  89 E7        29.83F FOG     WCI  34
KANKAKEE       RAIN      39  38  97 E7        29.85R WCI  34
MOLINE         CLOUDY    39  36  89 E16       29.75F FOG     WCI  30
MOUNT STERLING CLOUDY    42  41  99 E8        29.71F FOG
MOUNT VERNON   LGT RAIN  47  47 100 E3        29.72S FOG
PITTSFIELD     FOG       44  44  99 E5        29.72F VSB 3/4
QUINCY         CLOUDY    44  43  96 E8        29.71R FOG
ROCKFORD       LGT RAIN  39  37  92 E7        29.82F FOG     WCI  34
$$


CITY           SKY/WX    TMP DP  RH WIND       PRES   REMARKS
BURLINGTON     CLOUDY    41  41 100 E7        29.73S FOG
CEDAR RAPIDS   RAIN      36  36 100 E10       29.74S FOG     WCI  28
DES MOINES     DRZL/FOG  38  37  97 E8        29.70F VSB 1/2 WCI  32
KIRKSVILLE     FOG       43  42  97 NE5       29.68F VSB 1/4
OTTUMWA        CLOUDY    38  38 100 E9        29.71F FOG     WCI  31
ST LOUIS       DRZL/FOG  48  46  93 SE7       29.71S VSB 1/2
$$


CITY           SKY/WX    TMP DP  RH WIND       PRES   REMARKS
TERRE HAUTE    LGT RAIN  44  42  93 E12       29.78F
EVANSVILLE     RAIN      52  50  93 S6        29.77S FOG
INDIANAPOLIS   RAIN      44  41  89 E7        29.83F FOG
LAFAYETTE      RAIN      41  40  96 E10       29.84F FOG     WCI  35
MADISON        LGT RAIN  36  34  92 CALM      29.85R FOG
MILWAUKEE      LGT RAIN  36  34  92 SE8       29.87F VSB 1/16WCI  30
$$





USA.gov is the U.S. government's official web portal to all federal, state and local government web resources and services.